Weather History for KHBG - October, 2012

Change the Weather History Date:

Monday, October 15, 2012

  Actual Average Record
Temperature  
Mean Temperature 69 °F 67 °F  
Max Temperature 82 °F 80 °F 92 °F (1972)
Min Temperature 55 °F 55 °F 37 °F (1978)
Degree Days  
Heating Degree Days 0 2  
Month to date heating degree days 14 18  
Since 1 July heating degree days 14 20  
Cooling Degree Days 4 4  
Month to date cooling degree days 73 85  
Year to date cooling degree days 2682 2312  
Growing Degree Days 18 (Base 50)    
Moisture  
Dew Point 62 °F    
Average Humidity 64    
Maximum Humidity 93    
Minimum Humidity 35    
Precipitation  
Precipitation 0.06 in 0.12 in 0.99 in (2002)
Month to date precipitation 0.09 1.87  
Year to date precipitation 59.62 48.11  
Sea Level Pressure  
Sea Level Pressure 29.99 in    
Wind  
Wind Speed 4 mph (NW)    
Max Wind Speed 15 mph    
Max Gust Speed -    
Visibility 10 miles    
Events Rain , Thunderstorm    
T = Trace of Precipitation, MM = Missing Value Source: NWS Daily Summary

Daily Weather History Graph

Daily Weather History Graph

Search for Another Location

Airport or City:

Trip Planner

Search our weather history database for the weather conditions in past years. The results will help you decide how hot, cold, wet, or windy it might be!

Date:

Astronomy

Oct. 15, 2012 Rise Set
Actual Time 7:00 AM CDT 6:24 PM CDT
Civil Twilight 6:35 AM CDT 6:49 PM CDT
Nautical Twilight 6:07 AM CDT 7:17 PM CDT
Astronomical Twilight 5:39 AM CDT 7:45 PM CDT
Moon 7:06 AM CDT (10/15) 6:29 PM CDT (10/15)
Length of Visible Light 12h 13m
Length of Day
11h 24m
New Moon, 0% of the Moon is Illuminated
Oct 15
New Moon
Oct 21
First Quarter
Oct 29
Full
Nov 6
Last Quarter
Nov 13
New

Hourly Weather History & Observations

Time (CDT) Temp. Heat Index Dew Point Humidity Pressure Visibility Wind Dir Wind Speed Gust Speed Precip Events Conditions
12:53 AM 73.9 °F - 70.0 °F 87% 29.99 in 10.0 mi SSW 5.8 mph - N/A   Partly Cloudy
1:53 AM 73.0 °F - 68.0 °F 84% 29.99 in 10.0 mi WSW 5.8 mph - 0.05 in Rain Light Rain
2:35 AM 71.6 °F - 69.8 °F 94% 29.99 in 10.0 mi Calm Calm - 0.00 in Thunderstorm Scattered Clouds
2:50 AM 73.4 °F - 69.8 °F 88% 29.99 in 9.0 mi West 4.6 mph - 0.00 in Rain Light Rain
2:53 AM 73.0 °F - 70.0 °F 90% 29.98 in 9.0 mi WSW 5.8 mph - 0.00 in Rain Light Rain
3:15 AM 71.6 °F - 66.2 °F 83% 29.98 in 10.0 mi WNW 8.1 mph - 0.00 in Rain , Thunderstorm Light Rain
3:30 AM 71.6 °F - 66.2 °F 83% 30.00 in 10.0 mi NW 9.2 mph - 0.01 in   Mostly Cloudy
3:41 AM 71.6 °F - 68.0 °F 88% 29.99 in 10.0 mi NW 6.9 mph - 0.01 in Rain Light Rain
3:51 AM 71.6 °F - 68.0 °F 88% 29.99 in 10.0 mi NW 6.9 mph - 0.01 in Rain , Thunderstorm Light Rain
3:53 AM 71.1 °F - 66.9 °F 87% 29.99 in 10.0 mi NW 5.8 mph - 0.01 in Rain , Thunderstorm Light Rain
4:05 AM 71.6 °F - 66.2 °F 83% 29.98 in 10.0 mi NNW 4.6 mph - 0.00 in   Overcast
4:53 AM 69.1 °F - 66.9 °F 93% 29.98 in 9.0 mi South 4.6 mph - 0.00 in   Scattered Clouds
5:53 AM 69.1 °F - 66.9 °F 93% 30.00 in 10.0 mi Calm Calm - N/A   Scattered Clouds
6:53 AM 69.1 °F - 66.0 °F 90% 30.01 in 8.0 mi North 3.5 mph - N/A   Mostly Cloudy
7:53 AM 69.1 °F - 66.9 °F 93% 30.02 in 4.0 mi NW 3.5 mph - N/A   Clear
8:53 AM 72.0 °F - 64.9 °F 78% 30.03 in 10.0 mi North 6.9 mph - N/A   Clear
11:53 AM 77.0 °F - 61.0 °F 58% 30.02 in 10.0 mi NW 4.6 mph - N/A   Clear
12:53 PM 79.0 °F - 59.0 °F 50% 29.99 in 10.0 mi NNW 8.1 mph - N/A   Clear
1:53 PM 81.0 °F 80.8 °F 55.9 °F 42% 29.97 in 10.0 mi North 10.4 mph - N/A   Clear
2:53 PM 81.0 °F 80.7 °F 55.0 °F 41% 29.95 in 10.0 mi North 10.4 mph - N/A   Clear
3:53 PM 81.0 °F 80.7 °F 55.0 °F 41% 29.94 in 10.0 mi North 8.1 mph - N/A   Clear
4:53 PM 80.1 °F - 50.0 °F 35% 29.94 in 10.0 mi North 9.2 mph - N/A   Clear
5:53 PM 75.0 °F - 52.0 °F 44% 29.94 in 10.0 mi North 3.5 mph - N/A   Clear
6:53 PM 66.0 °F - 55.9 °F 70% 29.95 in 10.0 mi Calm Calm - N/A   Clear
7:53 PM 63.0 °F - 55.9 °F 78% 29.97 in 10.0 mi Calm Calm - N/A   Clear
8:53 PM 59.0 °F - 55.0 °F 87% 29.98 in 10.0 mi Calm Calm - N/A   Clear
9:53 PM 57.9 °F - 55.0 °F 90% 30.01 in 10.0 mi Calm Calm - N/A   Clear
10:53 PM 55.9 °F - 54.0 °F 93% 30.02 in 10.0 mi Calm Calm - N/A   Clear
11:53 PM 55.9 °F - 53.1 °F 90% 30.01 in 10.0 mi Calm Calm - N/A   Clear